Time,TemperatureF,DewpointF,PressureIn,WindDirection,WindDirectionDegrees,WindSpeedMPH,WindSpeedGustMPH,Humidity,HourlyPrecipIn,Conditions,Clouds,dailyrainin,SolarRadiationWatts/m^2,SoftwareType,DateUTC
2013-08-11 00:01:00,58.0,53.0,-100.00,SE,134,0.0,0.0,82,0.00,,,0.00,0.000000,,2013-08-11 04:01:00,
2013-08-11 00:12:00,58.0,53.0,-100.00,SE,134,0.0,0.0,82,0.00,,,0.00,0.000000,,2013-08-11 04:12:00,
2013-08-11 00:22:00,58.0,53.0,-100.00,SE,134,0.0,0.0,82,0.00,,,0.00,0.000000,,2013-08-11 04:22:00,
2013-08-11 00:32:00,58.0,53.0,-100.00,SE,134,0.0,0.0,82,0.00,,,0.00,0.000000,,2013-08-11 04:32:00,
2013-08-11 01:02:00,55.0,52.0,-100.00,WSW,238,0.0,0.0,90,0.00,,,0.00,0.000000,,2013-08-11 05:02:00,
2013-08-11 01:21:00,55.0,52.0,-100.00,WSW,238,0.0,0.0,90,0.00,,,0.00,0.000000,,2013-08-11 05:21:00,
2013-08-11 01:25:00,55.0,52.0,-100.00,WSW,238,0.0,0.0,90,0.00,,,0.00,0.000000,,2013-08-11 05:25:00,
2013-08-11 01:37:00,55.0,52.0,-100.00,WSW,238,0.0,0.0,90,0.00,,,0.00,0.000000,,2013-08-11 05:37:00,
2013-08-11 03:07:00,52.0,51.0,-100.00,South,171,0.0,0.0,95,-99.99,,,0.00,0.000000,,2013-08-11 07:07:00,
2013-08-11 03:26:00,52.0,51.0,-100.00,South,171,0.0,0.0,95,-99.99,,,0.00,0.000000,,2013-08-11 07:26:00,
2013-08-11 03:36:00,52.0,51.0,-100.00,South,171,0.0,0.0,95,-99.99,,,0.00,0.000000,,2013-08-11 07:36:00,
2013-08-11 04:20:00,51.0,50.0,-100.00,SSW,209,0.0,0.0,95,-99.99,,,-99.99,0.000000,,2013-08-11 08:20:00,
2013-08-11 04:27:00,51.0,50.0,-100.00,SSW,209,0.0,0.0,95,-99.99,,,-99.99,0.000000,,2013-08-11 08:27:00,
2013-08-11 04:37:00,51.0,50.0,-100.00,SSW,209,0.0,0.0,95,-99.99,,,-99.99,0.000000,,2013-08-11 08:37:00,
2013-08-11 05:10:00,51.0,50.0,-100.00,South,179,0.0,0.0,97,-99.99,,,0.00,0.000000,,2013-08-11 09:10:00,
2013-08-11 05:17:00,51.0,50.0,-100.00,South,179,0.0,0.0,97,-99.99,,,0.00,0.000000,,2013-08-11 09:17:00,
2013-08-11 05:30:00,51.0,50.0,-100.00,South,179,0.0,0.0,97,-99.99,,,0.00,0.000000,,2013-08-11 09:30:00,
2013-08-11 05:35:00,51.0,50.0,-100.00,South,179,0.0,0.0,97,-99.99,,,0.00,0.000000,,2013-08-11 09:35:00,
2013-08-11 06:07:00,51.0,50.0,-100.00,South,171,0.0,0.0,97,0.00,,,0.00,1.000000,,2013-08-11 10:07:00,
2013-08-11 06:15:00,51.0,50.0,-100.00,South,171,0.0,0.0,97,0.00,,,0.00,1.000000,,2013-08-11 10:15:00,
2013-08-11 06:29:00,51.0,50.0,-100.00,South,171,0.0,0.0,97,0.00,,,0.00,1.000000,,2013-08-11 10:29:00,
2013-08-11 06:36:00,51.0,50.0,-100.00,South,171,0.0,0.0,97,0.00,,,0.00,1.000000,,2013-08-11 10:36:00,
2013-08-11 06:38:00,53.0,52.0,-100.00,SSW,207,0.0,0.0,97,0.00,,,0.00,17.000000,,2013-08-11 10:38:00,
2013-08-11 07:07:00,53.0,52.0,-100.00,SSW,207,0.0,0.0,97,0.00,,,0.00,17.000000,,2013-08-11 11:07:00,
2013-08-11 07:17:00,53.0,52.0,-100.00,SSW,207,0.0,0.0,97,0.00,,,0.00,17.000000,,2013-08-11 11:17:00,
2013-08-11 08:16:00,64.0,55.0,-100.00,NW,321,0.0,0.0,72,0.00,,,-99.99,132.000000,,2013-08-11 12:16:00,
2013-08-11 08:31:00,64.0,55.0,-100.00,NW,321,0.0,0.0,72,0.00,,,-99.99,132.000000,,2013-08-11 12:31:00,
2013-08-11 08:36:00,64.0,55.0,-100.00,NW,321,0.0,0.0,72,0.00,,,-99.99,132.000000,,2013-08-11 12:36:00,
2013-08-11 08:38:00,70.0,56.0,-100.00,NNW,329,0.0,0.0,61,0.00,,,-99.99,399.000000,,2013-08-11 12:38:00,
2013-08-11 11:38:00,74.0,56.0,-100.00,SW,235,0.0,0.0,54,-99.99,,,0.00,887.000000,,2013-08-11 15:38:00,
2013-08-11 12:38:00,75.0,56.0,-100.00,SW,226,0.0,0.0,52,0.00,,,0.00,963.000000,,2013-08-11 16:38:00,
2013-08-11 13:09:00,75.0,56.0,-100.00,SW,226,0.0,0.0,52,0.00,,,0.00,963.000000,,2013-08-11 17:09:00,
2013-08-11 13:15:00,75.0,56.0,-100.00,SW,226,0.0,0.0,52,0.00,,,0.00,963.000000,,2013-08-11 17:15:00,
2013-08-11 13:26:00,75.0,56.0,-100.00,SW,226,0.0,0.0,52,0.00,,,0.00,963.000000,,2013-08-11 17:26:00,
2013-08-11 13:38:00,72.0,57.0,-100.00,SW,236,0.0,1.0,59,0.00,,,0.00,976.000000,,2013-08-11 17:38:00,
2013-08-11 14:07:00,72.0,57.0,-100.00,SW,236,0.0,1.0,59,0.00,,,0.00,976.000000,,2013-08-11 18:07:00,
2013-08-11 14:19:00,72.0,57.0,-100.00,SW,236,0.0,1.0,59,0.00,,,0.00,976.000000,,2013-08-11 18:19:00,
2013-08-11 15:16:00,71.0,55.0,-100.00,WSW,244,0.0,2.0,57,0.00,,,0.00,926.000000,,2013-08-11 19:16:00,
2013-08-11 15:27:00,71.0,55.0,-100.00,WSW,244,0.0,2.0,57,0.00,,,0.00,926.000000,,2013-08-11 19:27:00,
2013-08-11 15:35:00,71.0,55.0,-100.00,WSW,244,0.0,2.0,57,0.00,,,0.00,926.000000,,2013-08-11 19:35:00,
2013-08-11 15:38:00,72.0,53.0,-100.00,SW,234,0.0,7.0,51,0.00,,,0.00,822.000000,,2013-08-11 19:38:00,
2013-08-11 16:08:00,72.0,53.0,-100.00,SW,234,0.0,7.0,51,0.00,,,0.00,822.000000,,2013-08-11 20:08:00,
2013-08-11 16:20:00,72.0,53.0,-100.00,SW,234,0.0,7.0,51,0.00,,,0.00,822.000000,,2013-08-11 20:20:00,
2013-08-11 16:28:00,72.0,53.0,-100.00,SW,234,0.0,7.0,51,0.00,,,0.00,822.000000,,2013-08-11 20:28:00,
2013-08-11 17:08:00,70.0,55.0,-100.00,WSW,244,0.0,8.0,58,0.00,,,0.00,670.000000,,2013-08-11 21:08:00,
2013-08-11 17:14:00,70.0,55.0,-100.00,WSW,244,0.0,8.0,58,0.00,,,0.00,670.000000,,2013-08-11 21:14:00,
2013-08-11 17:27:00,70.0,55.0,-100.00,WSW,244,0.0,8.0,58,0.00,,,0.00,670.000000,,2013-08-11 21:27:00,
2013-08-11 17:35:00,70.0,55.0,-100.00,WSW,244,0.0,8.0,58,0.00,,,0.00,670.000000,,2013-08-11 21:35:00,
2013-08-11 18:05:00,67.0,54.0,-100.00,SW,227,0.0,8.0,63,0.00,,,0.00,476.000000,,2013-08-11 22:05:00,
2013-08-11 18:17:00,67.0,54.0,-100.00,SW,227,0.0,8.0,63,0.00,,,0.00,476.000000,,2013-08-11 22:17:00,
2013-08-11 18:26:00,67.0,54.0,-100.00,SW,227,0.0,8.0,63,0.00,,,0.00,476.000000,,2013-08-11 22:26:00,
2013-08-11 18:36:00,67.0,54.0,-100.00,SW,227,0.0,8.0,63,0.00,,,0.00,476.000000,,2013-08-11 22:36:00,
2013-08-11 19:07:00,64.0,55.0,-100.00,SW,224,0.0,10.0,72,0.00,,,0.00,206.000000,,2013-08-11 23:07:00,
2013-08-11 19:18:00,64.0,55.0,-100.00,SW,224,0.0,10.0,72,0.00,,,0.00,206.000000,,2013-08-11 23:18:00,
2013-08-11 19:30:00,64.0,55.0,-100.00,SW,224,0.0,10.0,72,0.00,,,0.00,206.000000,,2013-08-11 23:30:00,
2013-08-11 19:36:00,64.0,55.0,-100.00,SW,224,0.0,10.0,72,0.00,,,0.00,206.000000,,2013-08-11 23:36:00,
2013-08-11 20:08:00,62.0,55.0,-100.00,SW,215,0.0,3.0,78,0.00,,,0.00,29.000000,,2013-08-12 00:08:00,
2013-08-11 20:18:00,62.0,55.0,-100.00,SW,215,0.0,3.0,78,0.00,,,0.00,29.000000,,2013-08-12 00:18:00,
2013-08-11 20:26:00,62.0,55.0,-100.00,SW,215,0.0,3.0,78,0.00,,,0.00,29.000000,,2013-08-12 00:26:00,
2013-08-11 20:37:00,62.0,55.0,-100.00,SW,215,0.0,3.0,78,0.00,,,0.00,29.000000,,2013-08-12 00:37:00,
2013-08-11 20:38:00,61.0,56.0,-100.00,SW,215,0.0,2.0,84,0.00,,,0.00,1.000000,,2013-08-12 00:38:00,
2013-08-11 21:08:00,61.0,56.0,-100.00,SW,215,0.0,2.0,84,0.00,,,0.00,1.000000,,2013-08-12 01:08:00,
2013-08-11 21:26:00,61.0,56.0,-100.00,SW,215,0.0,2.0,84,0.00,,,0.00,1.000000,,2013-08-12 01:26:00,
2013-08-11 22:09:00,61.0,57.0,-100.00,SW,222,0.0,4.0,87,0.00,,,0.00,0.000000,,2013-08-12 02:09:00,
2013-08-11 22:16:00,61.0,57.0,-100.00,SW,222,0.0,4.0,87,0.00,,,0.00,0.000000,,2013-08-12 02:16:00,
2013-08-11 22:25:00,61.0,57.0,-100.00,SW,222,0.0,4.0,87,0.00,,,0.00,0.000000,,2013-08-12 02:25:00,
2013-08-11 22:37:00,61.0,57.0,-100.00,SW,222,0.0,4.0,87,0.00,,,0.00,0.000000,,2013-08-12 02:37:00,
2013-08-11 22:38:00,61.0,58.0,-100.00,SW,215,0.0,9.0,89,0.00,,,0.00,0.000000,,2013-08-12 02:38:00,
2013-08-11 23:16:00,61.0,58.0,-100.00,SW,215,0.0,9.0,89,0.00,,,0.00,0.000000,,2013-08-12 03:16:00,
2013-08-11 23:25:00,61.0,58.0,-100.00,SW,215,0.0,9.0,89,0.00,,,0.00,0.000000,,2013-08-12 03:25:00,